Simultaneous Nadir Overpasses (SNOs) Predictions

Prediction of SNOs between NOAA-19 and NPP Satellite Orbit:

Table of predicted SNOs for the next 14.0 days since TLE Epoch: 1/31/2020
Index Date (NOAA-19) Time (NOAA-19) Lat,Lon (NOAA-19) SZA (NOAA-19 ) Date (NPP) Time (NPP) Lat,Lon (NPP) SZA (NPP ) Distance(km) Time Diff (sec)
1 02/13/2020 14:42:37 -79.38, 102.16 84.77 02/13/2020 14:43:44 -79.43, 105.34 85.13 65.16 67
2 02/13/2020 15:33:27 79.59, -88.57 95.16 02/13/2020 15:34:34 79.59, -88.67 95.14 1.92 67
3 02/13/2020 16:24:31 -79.58, 78.54 84.86 02/13/2020 16:25:19 -79.60, 78.59 84.87 2.55 48
4 02/13/2020 17:15:28 79.58,-114.17 95.13 02/13/2020 17:16:04 79.59,-114.06 95.12 2.71 36
5 02/13/2020 18:06:31 -79.59, 53.24 84.89 02/13/2020 18:06:49 -79.60, 53.19 84.89 1.14 18
6 02/13/2020 18:57:28 79.60,-139.48 95.10 02/13/2020 18:57:34 79.60,-139.46 95.10 0.41 6
7 02/13/2020 19:48:31 -79.61, 27.94 84.92 02/13/2020 19:48:19 -79.60, 27.80 84.91 3.11 12
8 02/13/2020 20:39:28 79.62,-164.78 95.07 02/13/2020 20:39:04 79.60,-164.85 95.08 2.41 24
9 02/13/2020 21:30:32 -79.60, 2.35 84.94 02/13/2020 21:29:49 -79.60, 2.40 84.93 1.10 43
10 02/13/2020 22:21:29 79.61, 169.62 95.05 02/13/2020 22:20:34 79.60, 169.75 95.06 2.71 55
11 02/13/2020 23:12:32 -79.62, -22.96 84.97 02/13/2020 23:11:19 -79.61, -22.99 84.95 2.00 73




NCC Satellite Simultaneous Nadir Overpasses (SNOs) Prediction Service
